SCP
0 0 0 0 0 0 0 0 0 0 0 0 0 0 0 0 1 1 1 1 1 1 1 1 1 1 1 1 1 1 1 1 1 1 1 1 0 0 0 0 0 0 0 0 0 0 0 0 0
0 0 0 0 0 0 0 0 0 0 0 0 0 0 0 0 1 1 1 1 1 1 1 1 1 1 1 1 1 1 1 1 1 1 1 1 0 0 0 0 0 0 0 0 0 0 0 0 0
0 0 0 0 0 0 0 0 0 0 0 0 0 0 0 1 1 1 1 1 2 2 1 1 1 1 1 1 1 1 1 1 1 1 1 1 0 0 1 1 0 0 0 0 0 0 0 0 0
0 0 0 0 0 0 0 0 0 0 0 0 0 1 1 1 1 1 1 1 2 2 2 1 1 1 1 1 1 1 1 1 1 1 1 1 0 0 0 0 0 0 0 0 0 0 0 0 0
0 0 0 0 0 0 0 0 0 0 0 0 1 1 1 1 1 1 1 2 2 1 1 1 1 1 1 1 1 1 1 1 1 1 1 1 0 0 0 0 0 0 0 0 0 0 0 0 0
0 0 0 0 0 0 0 0 0 0 0 1 1 1 1 2 2 2 1 1 1 1 1 1 1 1 1 1 1 1 1 1 1 1 1 1 0 0 0 0 0 0 0 0 0 0 0 0 0
0 0 0 0 0 0 0 0 0 0 0 1 1 1 1 2 3 2 2 1 1 1 1 1 1 1 1 1 1 1 1 1 1 1 1 1 1 1 0 0 0 0 0 0 0 0 0 0 0
0 0 0 0 0 0 0 0 0 0 0 1 1 1 2 3 3 3 2 2 1 1 2 2 1 1 1 1 1 1 1 1 1 1 1 1 1 1 1 0 0 0 1 1 1 0 0 0 0
0 0 0 0 0 0 0 0 0 0 0 1 1 1 2 3 3 3 2 2 2 2 2 2 2 1 1 1 1 1 1 1 1 1 1 1 1 1 1 1 1 1 1 1 1 0 0 0 0
0 0 0 0 0 0 0 0 0 0 0 1 1 2 2 3 3 3 3 2 2 2 2 2 1 1 1 1 1 1 1 1 1 1 1 1 1 1 1 1 1 1 1 1 1 0 0 0 0
0 0 0 0 0 0 0 0 0 0 1 1 1 2 3 4 4 3 3 3 3 3 2 2 1 1 1 1 2 2 2 1 1 1 1 1 1 1 1 1 1 1 1 1 1 1 1 1 1
0 0 0 0 0 0 0 0 0 1 1 1 2 3 4 5 5 4 4 4 4 4 3 2 2 1 1 2 2 1 1 1 1 1 1 1 1 1 1 1 1 1 1 1 1 1 1 1 1
0 0 0 0 0 0 0 0 1 1 1 1 2 3 4 5 5 5 5 4 4 3 3 2 2 2 2 2 1 1 1 1 1 1 1 1 1 1 2 2 2 1 1 1 1 1 1 1 1
0 0 0 0 0 0 0 0 1 1 1 1 2 3 4 4 4 4 4 4 3 3 2 2 2 2 2 2 1 1 1 1 1 1 1 1 1 1 2 2 2 2 1 1 1 1 1 1 1
0 0 0 0 0 0 0 0 1 1 1 1 2 3 3 3 3 3 3 3 3 2 2 2 2 2 2 2 1 1 1 1 1 1 1 1 1 1 1 2 2 2 2 1 1 1 1 0 0
0 0 0 0 0 0 0 0 1 1 1 1 2 3 3 3 3 2 2 2 2 2 2 2 2 2 2 2 2 1 1 1 1 1 1 1 1 1 1 1 1 1 2 2 1 1 1 0 0
0 0 0 0 0 0 0 1 1 1 1 1 2 3 4 3 2 2 2 2 3 3 3 3 3 3 3 3 2 1 1 1 0 0 0 0 0 0 1 1 1 1 1 2 1 1 1 0 0
0 0 0 0 0 0 0 1 1 1 1 1 2 4 4 3 2 2 2 2 3 3 3 3 3 3 3 2 2 1 1 1 0 0 0 0 0 0 0 0 1 1 1 1 1 1 0 0 0
0 0 0 0 0 0 0 1 1 1 1 1 3 4 4 3 2 2 2 2 2 2 2 2 3 3 2 2 1 1 1 1 1 0 0 0 0 0 0 0 0 0 0 0 0 0 0 0 0
0 0 0 0 0 0 0 1 1 1 1 1 2 3 3 2 2 2 2 2 2 3 2 2 2 2 2 1 1 1 1 1 1 0 0 0 0 0 0 0 0 0 0 0 0 0 0 0 0
0 0 0 0 0 0 0 1 1 1 1 1 1 2 2 2 2 2 2 2 2 2 2 2 2 2 2 1 1 1 1 1 1 1 1 0 0 0 0 0 0 0 0 0 0 0 0 0 0
0 0 0 0 0 0 0 0 1 1 1 1 1 1 1 1 1 2 2 2 2 2 2 2 2 2 2 2 1 1 1 1 1 1 1 1 0 0 0 0 0 0 0 0 0 0 0 0 0
0 0 0 0 0 0 0 0 1 1 1 0 1 1 1 1 1 1 1 2 2 2 2 2 2 3 2 2 1 1 1 1 1 1 1 1 1 1 0 0 0 0 0 0 0 0 0 0 0
0 0 0 0 0 0 0 0 0 0 0 0 0 1 1 1 1 1 1 2 2 2 1 2 2 2 2 2 1 1 1 1 1 1 1 0 1 1 1 1 0 0 0 0 0 0 0 0 0
0 0 0 0 0 0 0 0 0 0 0 0 0 0 1 1 1 1 1 1 2 1 1 1 2 2 2 1 1 1 1 1 1 0 0 0 1 1 1 1 1 1 0 0 1 1 0 0 0
0 0 0 0 0 0 0 0 0 0 0 0 0 0 1 1 1 1 1 1 1 1 1 2 2 2 1 1 2 2 2 1 1 1 1 1 1 1 1 1 1 1 1 1 0 0 0 0 0
0 0 0 0 0 0 0 0 0 0 0 0 0 0 0 1 1 1 1 1 1 2 2 2 2 2 1 1 2 2 2 1 1 1 1 1 1 2 2 2 2 1 1 1 0 0 0 0 0
0 0 0 0 0 0 0 0 0 0 0 0 0 0 0 1 1 1 1 1 1 2 2 2 2 1 1 1 2 2 2 1 1 1 2 2 2 3 2 2 1 1 1 1 0 0 0 0 0
0 0 0 0 0 0 0 0 0 0 0 0 0 0 0 0 1 1 1 1 1 1 1 1 1 1 1 1 1 2 1 1 1 2 2 3 3 3 2 2 1 1 1 1 0 0 0 0 0
0 0 0 0 0 0 0 0 0 0 0 0 0 0 0 0 1 1 1 1 1 1 1 1 1 1 1 1 1 1 1 1 2 2 2 3 3 3 2 1 1 1 1 0 0 0 0 0 0
Wind_Speed
11 9 6 5 7 6 1 3 1 2 2 2 2 1 1 1 1 5 8 17 18 18 19 18 15 15 15 14 14 14 14 14 14 13 12 12 11 10 10 9 9 9 9 10 10 10 10 10 10
7 5 6 6 8 3 3 2 1 1 3 4 3 2 2 2 5 7 10 17 19 19 19 17 17 15 15 14 14 14 14 14 13 13 12 11 11 10 10 9 8 9 9 9 9 9 9 9 9
6 6 7 6 5 3 2 2 0 2 4 5 3 1 1 2 5 7 11 19 19 17 17 17 18 16 15 14 14 14 14 13 13 12 11 11 10 10 9 9 8 8 8 9 9 9 9 8 8
5 6 7 8 4 1 2 1 1 4 5 5 4 3 3 4 3 8 16 20 19 17 17 19 17 16 15 14 14 14 13 13 12 11 10 10 9 9 9 8 8 8 8 8 8 8 8 7 7
6 6 8 7 2 1 2 2 3 5 4 5 5 3 5 4 6 13 17 19 19 18 16 19 16 16 15 14 14 13 13 12 12 11 10 9 9 9 8 8 7 7 7 7 7 7 6 6 6
6 6 8 3 2 0 0 1 4 5 4 3 4 3 6 5 10 15 17 17 17 17 16 18 16 15 15 14 13 13 12 12 11 10 9 9 8 8 8 7 7 6 6 6 6 6 5 5 5
7 5 4 2 0 1 1 1 3 3 4 3 2 3 7 8 11 14 15 15 15 16 15 16 16 14 14 13 12 12 12 11 10 10 9 8 7 7 7 6 6 6 5 5 5 5 4 4 4
6 6 4 2 2 1 3 0 1 3 2 1 3 3 7 11 13 14 14 14 14 14 14 14 14 14 13 13 12 12 11 11 10 9 8 7 7 7 6 7 6 5 5 5 4 4 4 3 2
6 7 2 1 3 2 2 2 2 1 2 3 1 2 8 15 15 15 14 13 13 12 12 13 13 12 11 11 12 12 11 10 10 9 8 7 7 7 7 5 6 3 4 4 4 3 3 3 4
7 5 3 4 6 6 3 4 2 4 6 5 5 7 12 15 15 16 16 16 15 14 13 11 11 11 10 8 9 8 8 9 7 6 7 5 3 1 2 8 4 3 3 4 3 2 4 6 4
6 5 5 5 5 7 6 4 3 6 5 2 4 10 15 15 15 15 15 15 15 14 12 12 10 10 9 6 6 4 4 5 5 6 5 3 3 2 2 2 4 3 4 3 3 4 3 3 2
6 7 7 7 6 6 6 4 4 5 3 2 2 9 15 16 15 15 14 14 14 13 13 11 11 9 7 6 5 5 4 4 4 5 4 3 2 1 1 0 0 1 1 1 1 1 2 3 3
9 7 5 5 5 5 5 4 4 2 0 2 5 10 13 14 14 13 12 12 13 13 12 11 10 9 8 6 4 5 4 4 4 3 3 2 2 2 1 1 0 1 0 1 1 1 1 3 3
5 7 7 6 4 3 5 4 4 2 3 5 7 9 11 13 12 12 12 12 12 12 11 10 10 9 8 6 4 3 4 3 3 3 4 3 2 2 1 1 0 0 1 1 1 1 2 2 2
7 9 8 5 4 3 5 7 5 3 5 6 8 8 9 10 11 12 12 12 12 12 11 11 10 9 8 7 6 5 4 4 4 4 4 3 3 2 1 1 0 1 1 0 1 1 2 2 2
9 10 6 4 4 3 8 4 5 6 6 7 8 9 9 9 10 10 11 11 11 11 11 11 9 10 8 6 5 4 4 4 4 4 4 4 4 2 1 1 1 1 0 0 0 1 1 1 2
8 6 6 1 4 4 7 5 4 6 7 7 8 9 10 10 11 10 10 11 10 10 11 10 9 9 8 7 6 5 4 4 4 4 4 5 4 3 1 2 2 0 0 1 1 1 2 1 2
7 9 7 5 2 6 7 6 3 6 7 8 9 9 10 11 11 10 10 10 10 10 10 9 9 8 8 7 6 5 5 5 4 4 4 5 4 3 2 3 2 1 1 1 2 2 2 2 3
10 10 9 5 1 6 7 7 4 6 7 8 9 10 11 11 10 10 10 9 10 10 10 10 10 9 8 7 7 6 6 5 5 5 6 5 4 4 1 2 3 0 2 2 2 2 0 1 3
10 10 8 2 1 6 7 8 4 5 7 7 9 10 12 12 12 11 11 10 11 11 11 11 10 10 9 7 5 5 5 5 5 4 5 5 5 4 3 2 2 2 2 2 1 1 3 2 2
9 8 9 7 3 6 8 7 5 6 6 7 8 10 12 13 14 14 12 12 12 12 12 10 11 10 9 9 6 6 5 5 5 6 5 5 5 4 2 3 1 1 1 2 1 1 2 2 1
8 4 6 6 8 4 4 7 3 6 7 8 9 11 12 13 14 14 14 13 13 13 12 12 11 10 10 10 8 9 7 6 6 5 5 6 6 5 5 4 3 1 0 2 2 2 1 3 2
6 2 5 7 8 8 4 7 3 6 6 8 10 11 13 14 15 15 15 14 13 13 12 12 11 11 10 10 9 9 7 6 5 5 6 6 6 6 5 5 4 3 2 1 1 1 2 2 3
2 5 6 7 8 6 2 6 2 2 3 6 10 12 13 14 14 14 14 14 13 13 12 12 12 11 11 11 10 10 8 7 6 7 7 7 6 6 7 6 4 4 2 3 2 2 2 1 2
8 9 7 6 5 1 3 5 3 2 3 6 9 12 13 14 14 14 15 15 14 14 14 13 13 13 12 12 11 10 9 8 8 8 7 6 5 6 7 6 5 4 3 4 3 3 2 2 2
8 9 8 7 7 5 2 4 3 4 4 6 8 11 13 14 14 15 15 15 15 16 15 15 14 14 13 12 11 10 9 8 7 7 6 6 5 5 6 6 6 5 5 5 4 4 3 3 3
6 8 7 9 9 8 3 1 2 6 7 9 10 12 13 14 15 16 16 16 16 16 16 16 15 14 14 13 11 10 10 9 7 7 7 6 5 5 7 7 7 6 6 5 5 4 3 3 5
7 5 4 8 7 7 4 3 1 5 8 10 12 13 14 15 15 16 16 16 16 16 15 15 15 15 14 13 12 10 11 10 8 8 8 6 6 6 7 7 7 7 7 6 6 5 5 5 5
7 8 8 8 7 8 7 3 5 1 5 9 11 12 14 15 16 15 15 15 15 15 16 15 15 14 14 13 12 11 11 11 10 9 9 8 8 8 8 8 8 8 7 7 6 6 5 6 6
9 10 9 8 8 7 8 3 6 2 3 6 8 10 12 14 14 15 15 15 15 16 16 16 15 15 14 13 13 12 11 11 11 10 10 9 9 9 9 8 8 8 8 8 8 8 7 7 7
Wind_Direction
186 200 225 238 239 232 102 90 61 142 141 114 147 223 236 107 20 89 120 151 148 148 143 150 150 147 143 139 136 134 133 132 131 130 127 125 123 120 115 109 106 105 101 99 97 95 94 94 95
190 205 230 239 256 238 121 114 179 116 93 134 161 202 204 104 60 101 139 149 151 149 148 153 148 149 145 142 139 138 135 133 132 131 129 127 123 119 115 110 108 104 102 100 98 96 93 93 92
198 231 255 248 253 300 60 89 328 122 146 178 175 211 333 79 118 136 146 152 152 148 148 144 152 151 148 145 143 141 138 136 135 133 131 128 124 119 113 109 108 104 104 102 100 97 95 92 90
212 223 236 249 243 25 342 342 261 185 173 200 206 156 105 59 122 138 147 153 150 150 152 145 156 152 150 149 147 144 141 139 137 134 131 129 126 122 116 112 108 106 105 103 102 99 98 96 89
238 249 240 233 230 64 296 314 243 218 194 191 207 158 107 83 117 137 148 154 153 155 152 147 157 154 153 152 150 147 144 142 139 136 132 130 128 126 122 117 110 108 107 107 105 103 100 94 86
231 243 248 241 129 153 271 284 234 226 203 182 207 174 91 108 135 145 150 157 157 155 153 144 155 156 155 154 153 151 148 145 143 141 137 134 133 128 127 123 118 113 109 107 106 106 102 92 84
268 263 274 299 250 174 66 347 250 241 216 193 208 166 116 134 138 145 150 155 158 157 152 152 159 159 157 156 155 153 149 147 146 145 142 141 141 135 133 131 130 128 122 119 116 112 108 98 85
286 269 234 219 259 73 76 165 351 271 209 106 225 201 140 145 146 146 149 154 158 159 158 158 162 160 165 163 160 155 152 151 149 149 150 149 151 154 151 165 136 133 135 140 138 131 122 114 97
258 253 243 1 319 10 65 260 151 237 187 176 195 27 116 143 149 152 153 158 161 163 163 165 161 164 171 167 156 161 159 157 162 163 160 182 184 165 170 122 119 140 143 149 155 158 157 180 168
245 266 19 357 321 320 316 278 258 219 213 198 166 123 134 150 158 162 164 165 166 166 169 167 166 164 174 168 155 171 172 161 181 158 168 185 150 150 140 113 138 157 164 166 164 188 213 239 210
243 279 332 316 314 305 287 263 241 258 249 232 186 155 154 160 166 171 172 170 166 168 171 168 166 167 175 162 164 168 164 154 169 157 161 156 162 165 180 161 163 178 193 197 166 206 245 259 287
253 268 283 294 309 288 279 271 248 260 330 26 175 165 163 169 171 175 174 172 167 170 173 169 166 170 175 170 165 167 165 164 160 150 176 161 160 166 151 172 167 194 187 185 239 241 266 280 273
243 270 279 278 273 276 265 258 272 266 42 135 158 165 169 173 174 174 171 172 171 172 172 170 170 168 169 168 185 164 162 162 144 142 153 158 165 164 137 99 319 282 242 192 223 253 251 263 257
277 275 274 267 262 234 247 237 231 181 152 150 157 165 173 172 173 173 172 173 173 173 173 169 174 170 169 167 171 153 155 150 143 151 144 156 138 119 138 168 191 320 324 9 297 279 258 261 273
267 266 250 218 220 209 249 226 211 161 173 168 165 164 169 170 174 177 175 176 176 173 175 173 174 171 172 170 172 158 163 163 155 141 134 134 116 110 139 124 180 38 13 193 251 260 253 245 240
242 249 253 147 207 198 252 284 123 157 182 179 170 166 170 173 181 182 177 176 175 175 176 177 176 170 169 166 166 156 165 153 151 145 135 127 108 113 142 110 74 53 294 275 191 269 273 272 272
218 281 322 106 189 215 248 294 128 170 190 186 179 175 177 177 181 183 179 176 176 177 174 173 172 167 164 159 154 152 147 149 149 148 138 134 134 133 126 77 74 187 78 43 319 54 325 328 322
327 320 320 325 161 236 254 270 193 182 199 195 185 181 179 180 180 175 175 175 174 176 171 168 168 162 155 153 149 150 150 154 149 142 129 142 141 134 119 118 99 58 74 64 48 44 20 330 326
303 301 308 332 329 256 264 269 238 187 199 200 190 183 180 181 173 171 177 179 176 174 172 172 169 164 164 165 164 163 161 158 151 148 141 147 137 132 129 106 119 79 73 36 23 338 74 338 338
280 288 302 313 205 266 281 271 242 198 205 204 195 188 185 178 172 177 181 181 182 181 179 176 174 174 175 163 159 163 152 158 152 153 147 156 152 155 154 121 152 112 115 111 54 350 330 17 359
281 297 318 319 278 236 274 251 194 177 190 194 197 192 188 183 178 177 182 183 184 185 182 180 178 176 172 159 161 152 150 165 166 168 166 167 168 168 150 160 146 143 196 107 84 348 347 341 10
291 333 303 289 275 291 284 304 156 177 187 192 197 195 188 185 183 180 182 185 185 183 180 177 175 174 168 170 175 174 181 181 175 179 165 168 179 177 173 176 169 194 137 128 197 79 325 307 324
312 331 281 279 281 285 241 284 99 168 202 193 191 191 189 184 184 184 186 185 182 178 176 171 171 172 174 181 179 188 191 182 172 175 161 182 175 184 185 183 177 185 194 137 56 113 307 309 326
207 225 234 242 256 265 6 295 4 143 195 177 179 185 187 185 184 184 183 182 179 176 174 169 171 176 179 184 185 196 189 187 181 185 178 192 182 186 185 188 189 198 188 172 191 208 207 311 342
223 255 263 249 238 337 70 282 359 86 170 176 175 180 184 185 184 182 180 181 179 177 177 175 175 179 182 186 190 192 192 192 196 201 193 206 195 190 181 192 193 198 190 194 200 209 245 227 242
233 262 280 301 311 325 192 286 36 120 158 173 176 176 178 182 183 183 182 182 181 180 179 179 181 182 184 188 191 192 194 202 200 203 211 203 210 195 170 188 194 196 196 200 200 227 211 220 241
234 244 290 284 278 280 283 272 166 150 174 179 179 177 180 182 183 184 184 184 184 183 183 184 184 185 188 190 190 194 198 209 201 186 207 204 199 184 180 190 191 193 198 208 215 234 232 226 239
272 276 245 267 283 283 275 275 12 156 179 181 185 186 183 184 186 187 186 188 188 187 186 188 188 191 192 192 195 194 196 199 196 200 200 195 191 188 186 191 194 196 198 204 221 227 214 231 236
199 222 246 265 282 289 296 336 54 93 182 188 188 189 187 188 189 188 189 190 190 189 187 190 192 194 195 197 197 199 196 195 195 198 195 191 192 189 195 197 199 201 204 207 215 238 222 231 237
245 246 236 251 259 260 283 311 80 82 163 186 191 187 189 190 190 190 190 190 191 192 192 192 195 197 198 197 196 198 198 195 197 198 196 192 192 196 198 200 204 209 210 211 217 228 228 231 237